Time,TemperatureF,DewpointF,PressureIn,WindDirection,WindDirectionDegrees,WindSpeedMPH,WindSpeedGustMPH,Humidity,HourlyPrecipIn,Conditions,Clouds,dailyrainin,SolarRadiationWatts/m^2,SoftwareType,DateUTC
2013-10-07 00:00:00,64.7,61.4,29.91,WNW,284,0.0,0.0,89,0.00,,,0.00,0,Wunderground v.1.15,2013-10-07 04:00:00,
2013-10-07 00:05:00,64.6,61.3,29.91,WNW,284,0.0,1.0,89,0.00,,,0.00,0,Wunderground v.1.15,2013-10-07 04:05:00,
2013-10-07 00:10:00,64.4,61.1,29.90,WNW,283,1.0,2.0,89,0.00,,,0.00,0,Wunderground v.1.15,2013-10-07 04:10:00,
2013-10-07 00:15:00,64.2,61.2,29.90,WNW,289,1.0,2.0,90,0.00,,,0.00,0,Wunderground v.1.15,2013-10-07 04:15:00,
2013-10-07 00:20:00,63.9,60.9,29.90,WNW,286,1.0,1.0,90,0.00,,,0.00,0,Wunderground v.1.15,2013-10-07 04:20:00,
2013-10-07 00:30:00,63.6,60.9,29.89,WNW,288,0.0,0.0,91,0.00,,,0.00,0,Wunderground v.1.15,2013-10-07 04:30:00,
2013-10-07 00:35:00,63.5,60.8,29.89,WNW,290,0.0,0.0,91,0.00,,,0.00,0,Wunderground v.1.15,2013-10-07 04:35:00,
2013-10-07 00:40:00,63.3,60.6,29.89,WNW,290,0.0,0.0,91,0.00,,,0.00,0,Wunderground v.1.15,2013-10-07 04:40:00,
2013-10-07 00:45:00,63.2,60.8,29.89,WNW,289,0.0,1.0,92,0.00,,,0.00,0,Wunderground v.1.15,2013-10-07 04:45:00,
2013-10-07 00:50:00,63.1,60.7,29.89,WNW,290,1.0,1.0,92,0.00,,,0.00,0,Wunderground v.1.15,2013-10-07 04:50:00,
2013-10-07 00:55:00,63.0,60.6,29.89,WNW,289,1.0,1.0,92,0.00,,,0.00,0,Wunderground v.1.15,2013-10-07 04:55:00,
2013-10-07 01:05:00,62.9,60.8,29.89,WNW,300,2.0,2.0,93,0.00,,,0.00,0,Wunderground v.1.15,2013-10-07 05:05:00,
2013-10-07 01:10:00,62.9,60.8,29.88,NW,312,3.0,3.0,93,0.00,,,0.00,0,Wunderground v.1.15,2013-10-07 05:10:00,
2013-10-07 01:15:00,62.8,60.7,29.88,SW,236,2.0,3.0,93,0.00,,,0.00,0,Wunderground v.1.15,2013-10-07 05:15:00,
2013-10-07 01:20:00,62.7,60.6,29.88,NW,309,1.0,1.0,93,0.00,,,0.00,0,Wunderground v.1.15,2013-10-07 05:20:00,
2013-10-07 01:25:00,62.5,60.4,29.88,SW,223,1.0,1.0,93,0.00,,,0.00,0,Wunderground v.1.15,2013-10-07 05:25:00,
2013-10-07 01:30:00,62.4,60.3,29.88,SW,223,0.0,0.0,93,0.00,,,0.00,0,Wunderground v.1.15,2013-10-07 05:30:00,
2013-10-07 01:35:00,62.2,60.5,29.87,SW,223,0.0,0.0,94,0.00,,,0.00,0,Wunderground v.1.15,2013-10-07 05:35:00,
2013-10-07 01:40:00,62.2,60.5,29.87,SW,222,0.0,0.0,94,0.00,,,0.00,0,Wunderground v.1.15,2013-10-07 05:40:00,
2013-10-07 01:45:00,62.1,60.4,29.87,SW,221,0.0,0.0,94,0.00,,,0.00,0,Wunderground v.1.15,2013-10-07 05:45:00,
2013-10-07 01:50:00,62.0,60.3,29.87,SW,223,0.0,0.0,94,0.00,,,0.00,0,Wunderground v.1.15,2013-10-07 05:50:00,
2013-10-07 01:55:00,61.9,60.5,29.87,SW,219,1.0,1.0,95,0.00,,,0.00,0,Wunderground v.1.15,2013-10-07 05:55:00,
2013-10-07 02:00:00,62.0,60.6,29.87,WNW,286,1.0,3.0,95,0.00,,,0.00,0,Wunderground v.1.15,2013-10-07 06:00:00,
2013-10-07 02:05:00,62.0,60.6,29.87,WNW,287,1.0,3.0,95,0.00,,,0.00,0,Wunderground v.1.15,2013-10-07 06:05:00,
2013-10-07 02:10:00,61.9,60.5,29.87,WNW,288,1.0,1.0,95,0.00,,,0.00,0,Wunderground v.1.15,2013-10-07 06:10:00,
2013-10-07 02:15:00,61.7,60.3,29.87,WNW,289,0.0,1.0,95,0.00,,,0.00,0,Wunderground v.1.15,2013-10-07 06:15:00,
2013-10-07 02:20:00,61.7,60.3,29.87,WNW,288,0.0,0.0,95,0.00,,,0.00,0,Wunderground v.1.15,2013-10-07 06:20:00,
2013-10-07 02:25:00,61.7,60.3,29.87,WNW,290,1.0,1.0,95,0.00,,,0.00,0,Wunderground v.1.15,2013-10-07 06:25:00,
2013-10-07 02:30:00,61.6,60.2,29.86,WNW,291,1.0,1.0,95,0.00,,,0.00,0,Wunderground v.1.15,2013-10-07 06:30:00,
2013-10-07 02:35:00,61.5,60.1,29.86,WNW,284,0.0,1.0,95,0.00,,,0.00,0,Wunderground v.1.15,2013-10-07 06:35:00,
2013-10-07 02:40:00,61.4,60.2,29.86,North,5,1.0,2.0,96,0.00,,,0.00,0,Wunderground v.1.15,2013-10-07 06:40:00,
2013-10-07 02:45:00,61.4,60.2,29.86,North,360,2.0,2.0,96,0.00,,,0.00,0,Wunderground v.1.15,2013-10-07 06:45:00,
2013-10-07 02:50:00,61.4,60.2,29.86,NNE,23,1.0,1.0,96,0.00,,,0.00,0,Wunderground v.1.15,2013-10-07 06:50:00,
2013-10-07 02:55:00,61.4,60.5,29.85,NNE,22,0.0,2.0,97,0.00,,,0.00,0,Wunderground v.1.15,2013-10-07 06:55:00,
2013-10-07 03:00:00,61.5,60.6,29.85,South,173,1.0,1.0,97,0.00,,,0.00,0,Wunderground v.1.15,2013-10-07 07:00:00,
2013-10-07 03:05:00,61.5,60.6,29.85,South,171,1.0,1.0,97,0.00,,,0.00,0,Wunderground v.1.15,2013-10-07 07:05:00,
2013-10-07 03:10:00,61.6,60.7,29.85,SSW,196,1.0,1.0,97,0.00,,,0.00,0,Wunderground v.1.15,2013-10-07 07:10:00,
2013-10-07 03:20:00,62.0,61.1,29.84,ESE,121,0.0,1.0,97,0.00,,,0.00,0,Wunderground v.1.15,2013-10-07 07:20:00,
2013-10-07 03:25:00,62.1,61.2,29.84,ESE,121,0.0,1.0,97,0.00,,,0.00,0,Wunderground v.1.15,2013-10-07 07:25:00,
2013-10-07 03:30:00,62.2,61.3,29.84,ESE,121,0.0,0.0,97,0.00,,,0.00,0,Wunderground v.1.15,2013-10-07 07:30:00,
2013-10-07 03:35:00,62.2,61.0,29.84,ESE,119,1.0,2.0,96,0.00,,,0.00,0,Wunderground v.1.15,2013-10-07 07:35:00,
2013-10-07 03:40:00,62.2,61.0,29.84,NE,40,2.0,2.0,96,0.00,,,0.00,0,Wunderground v.1.15,2013-10-07 07:40:00,
2013-10-07 03:45:00,62.2,61.0,29.83,NE,42,1.0,2.0,96,0.00,,,0.00,0,Wunderground v.1.15,2013-10-07 07:45:00,
2013-10-07 03:50:00,62.2,61.0,29.83,NE,41,0.0,0.0,96,0.00,,,0.00,0,Wunderground v.1.15,2013-10-07 07:50:00,
2013-10-07 03:55:00,62.2,61.0,29.83,NE,42,0.0,0.0,96,0.00,,,0.00,0,Wunderground v.1.15,2013-10-07 07:55:00,
2013-10-07 04:00:00,62.2,61.0,29.83,NE,40,0.0,0.0,96,0.00,,,0.00,0,Wunderground v.1.15,2013-10-07 08:00:00,
2013-10-07 04:05:00,62.2,61.0,29.83,WSW,254,0.0,0.0,96,0.00,,,0.00,0,Wunderground v.1.15,2013-10-07 08:05:00,
2013-10-07 04:15:00,62.2,61.0,29.83,WSW,257,0.0,0.0,96,0.00,,,0.00,0,Wunderground v.1.15,2013-10-07 08:15:00,
2013-10-07 04:20:00,62.2,61.0,29.82,WSW,257,0.0,0.0,96,0.00,,,0.00,0,Wunderground v.1.15,2013-10-07 08:20:00,
2013-10-07 04:25:00,62.2,61.0,29.82,WSW,257,0.0,1.0,96,0.00,,,0.00,0,Wunderground v.1.15,2013-10-07 08:25:00,
2013-10-07 04:30:00,62.2,61.0,29.82,WSW,257,0.0,2.0,96,0.00,,,0.00,0,Wunderground v.1.15,2013-10-07 08:30:00,
2013-10-07 04:35:00,62.2,61.0,29.82,WSW,257,0.0,2.0,96,0.00,,,0.00,0,Wunderground v.1.15,2013-10-07 08:35:00,
2013-10-07 04:40:00,62.1,60.9,29.82,WSW,256,0.0,0.0,96,0.00,,,0.00,0,Wunderground v.1.15,2013-10-07 08:40:00,
2013-10-07 04:45:00,62.1,60.9,29.82,WSW,258,0.0,0.0,96,0.00,,,0.00,0,Wunderground v.1.15,2013-10-07 08:45:00,
2013-10-07 04:50:00,62.1,61.2,29.82,WSW,254,0.0,1.0,97,0.00,,,0.00,0,Wunderground v.1.15,2013-10-07 08:50:00,
2013-10-07 05:00:00,62.1,61.2,29.82,WSW,257,1.0,1.0,97,0.00,,,0.00,0,Wunderground v.1.15,2013-10-07 09:00:00,
2013-10-07 05:05:00,62.1,61.2,29.82,WSW,257,0.0,1.0,97,0.00,,,0.00,0,Wunderground v.1.15,2013-10-07 09:05:00,
2013-10-07 05:10:00,62.1,61.2,29.82,WSW,254,0.0,0.0,97,0.00,,,0.00,0,Wunderground v.1.15,2013-10-07 09:10:00,
2013-10-07 05:15:00,62.1,61.2,29.81,WSW,257,0.0,0.0,97,0.00,,,0.00,0,Wunderground v.1.15,2013-10-07 09:15:00,
2013-10-07 05:20:00,62.1,61.2,29.81,WSW,256,0.0,0.0,97,0.00,,,0.00,0,Wunderground v.1.15,2013-10-07 09:20:00,
2013-10-07 05:25:00,62.1,61.2,29.81,WSW,257,0.0,0.0,97,0.00,,,0.00,0,Wunderground v.1.15,2013-10-07 09:25:00,
2013-10-07 05:30:00,62.2,61.6,29.81,WSW,257,1.0,2.0,98,0.00,,,0.00,0,Wunderground v.1.15,2013-10-07 09:30:00,
2013-10-07 05:35:00,62.3,61.7,29.81,West,259,1.0,2.0,98,0.00,,,0.00,0,Wunderground v.1.15,2013-10-07 09:35:00,
2013-10-07 05:40:00,62.4,61.8,29.81,West,261,1.0,2.0,98,0.00,,,0.00,0,Wunderground v.1.15,2013-10-07 09:40:00,
2013-10-07 05:45:00,62.6,62.0,29.81,WSW,257,1.0,2.0,98,0.00,,,0.00,0,Wunderground v.1.15,2013-10-07 09:45:00,
2013-10-07 05:55:00,62.7,62.1,29.81,West,259,0.0,0.0,98,0.00,,,0.00,0,Wunderground v.1.15,2013-10-07 09:55:00,
2013-10-07 06:00:00,62.7,62.1,29.81,WSW,257,0.0,0.0,98,0.00,,,0.00,0,Wunderground v.1.15,2013-10-07 10:00:00,
2013-10-07 06:05:00,62.8,61.9,29.81,West,259,0.0,0.0,97,0.00,,,0.00,0,Wunderground v.1.15,2013-10-07 10:05:00,
2013-10-07 06:10:00,62.9,62.3,29.81,West,259,0.0,0.0,98,0.00,,,0.00,0,Wunderground v.1.15,2013-10-07 10:10:00,
2013-10-07 06:15:00,63.1,62.5,29.81,WNW,298,1.0,2.0,98,0.00,,,0.00,0,Wunderground v.1.15,2013-10-07 10:15:00,
2013-10-07 06:20:00,63.2,62.6,29.81,WNW,295,1.0,3.0,98,0.00,,,0.00,0,Wunderground v.1.15,2013-10-07 10:20:00,
2013-10-07 06:25:00,63.4,62.8,29.81,WNW,298,2.0,3.0,98,0.00,,,0.00,0,Wunderground v.1.15,2013-10-07 10:25:00,
2013-10-07 06:30:00,63.5,62.9,29.81,WNW,296,1.0,1.0,98,0.00,,,0.00,0,Wunderground v.1.15,2013-10-07 10:30:00,
2013-10-07 06:35:00,63.5,62.9,29.81,WNW,296,0.0,1.0,98,0.00,,,0.01,0,Wunderground v.1.15,2013-10-07 10:35:00,
2013-10-07 06:40:00,63.5,62.9,29.82,West,279,1.0,5.0,98,0.00,,,0.01,0,Wunderground v.1.15,2013-10-07 10:40:00,
2013-10-07 06:50:00,64.0,63.1,29.82,West,261,9.0,12.0,97,0.18,,,0.03,0,Wunderground v.1.15,2013-10-07 10:50:00,
2013-10-07 06:55:00,64.0,61.6,29.82,WNW,292,10.0,13.0,92,0.11,,,0.04,0,Wunderground v.1.15,2013-10-07 10:55:00,
2013-10-07 07:00:00,63.7,61.3,29.82,WSW,254,11.0,19.0,92,0.07,,,0.04,0,Wunderground v.1.15,2013-10-07 11:00:00,
2013-10-07 07:05:00,63.3,60.9,29.83,West,261,9.0,19.0,92,0.17,,,0.06,0,Wunderground v.1.15,2013-10-07 11:05:00,
2013-10-07 07:10:00,62.8,60.7,29.83,SW,227,6.0,6.0,93,0.23,,,0.08,0,Wunderground v.1.15,2013-10-07 11:10:00,
2013-10-07 07:15:00,62.4,60.7,29.83,SSW,205,4.0,6.0,94,0.20,,,0.10,0,Wunderground v.1.15,2013-10-07 11:15:00,
2013-10-07 07:20:00,62.1,60.7,29.83,West,259,2.0,2.0,95,1.67,,,0.17,0,Wunderground v.1.15,2013-10-07 11:20:00,
2013-10-07 07:25:00,61.9,60.7,29.83,East,90,1.0,5.0,96,0.45,,,0.22,0,Wunderground v.1.15,2013-10-07 11:25:00,
2013-10-07 07:30:00,61.6,60.7,29.84,SW,221,2.0,2.0,97,0.24,,,0.25,0,Wunderground v.1.15,2013-10-07 11:30:00,
2013-10-07 07:35:00,61.3,60.4,29.84,SW,234,2.0,10.0,97,0.08,,,0.25,0,Wunderground v.1.15,2013-10-07 11:35:00,
2013-10-07 07:45:00,60.9,59.2,29.84,WNW,288,6.0,11.0,94,0.14,,,0.27,0,Wunderground v.1.15,2013-10-07 11:45:00,
2013-10-07 07:50:00,60.7,58.1,29.84,SSE,152,6.0,6.0,91,0.17,,,0.29,0,Wunderground v.1.15,2013-10-07 11:50:00,
2013-10-07 07:55:00,60.5,58.5,29.85,WSW,255,4.0,8.0,93,0.22,,,0.31,0,Wunderground v.1.15,2013-10-07 11:55:00,
2013-10-07 08:00:00,60.1,57.5,29.85,NW,322,6.0,6.0,91,0.27,,,0.33,0,Wunderground v.1.15,2013-10-07 12:00:00,
2013-10-07 08:05:00,59.9,57.3,29.85,SW,223,7.0,7.0,91,0.29,,,0.35,0,Wunderground v.1.15,2013-10-07 12:05:00,
2013-10-07 08:10:00,59.6,57.6,29.84,South,188,5.0,5.0,93,0.24,,,0.37,5,Wunderground v.1.15,2013-10-07 12:10:00,
2013-10-07 08:15:00,59.3,57.0,29.84,WSW,243,5.0,5.0,92,0.21,,,0.39,7,Wunderground v.1.15,2013-10-07 12:15:00,
2013-10-07 08:20:00,59.2,57.2,29.84,WNW,282,6.0,6.0,93,0.19,,,0.41,11,Wunderground v.1.15,2013-10-07 12:20:00,
2013-10-07 08:25:00,59.0,56.7,29.84,WNW,288,7.0,11.0,92,0.13,,,0.42,11,Wunderground v.1.15,2013-10-07 12:25:00,
2013-10-07 08:30:00,59.0,56.4,29.85,North,360,7.0,11.0,91,0.06,,,0.42,12,Wunderground v.1.15,2013-10-07 12:30:00,
2013-10-07 08:35:00,59.1,56.5,29.84,WSW,257,7.0,14.0,91,0.04,,,0.42,16,Wunderground v.1.15,2013-10-07 12:35:00,
2013-10-07 08:40:00,59.1,56.8,29.85,North,360,8.0,8.0,92,0.00,,,0.42,14,Wunderground v.1.15,2013-10-07 12:40:00,
2013-10-07 08:45:00,59.0,57.0,29.86,West,271,7.0,8.0,93,0.00,,,0.43,14,Wunderground v.1.15,2013-10-07 12:45:00,
2013-10-07 08:50:00,58.7,56.7,29.86,SW,227,7.0,7.0,93,0.09,,,0.44,14,Wunderground v.1.15,2013-10-07 12:50:00,
2013-10-07 08:55:00,58.6,56.9,29.86,South,188,8.0,8.0,94,0.09,,,0.44,14,Wunderground v.1.15,2013-10-07 12:55:00,
2013-10-07 09:00:00,58.4,56.7,29.87,WSW,246,7.0,7.0,94,0.13,,,0.46,12,Wunderground v.1.15,2013-10-07 13:00:00,
2013-10-07 09:05:00,58.4,56.4,29.87,WNW,286,9.0,17.0,93,0.18,,,0.47,12,Wunderground v.1.15,2013-10-07 13:05:00,
2013-10-07 09:10:00,58.3,56.3,29.88,SSW,205,10.0,10.0,93,0.15,,,0.48,9,Wunderground v.1.15,2013-10-07 13:10:00,
2013-10-07 09:15:00,58.3,56.0,29.88,North,360,13.0,20.0,92,0.13,,,0.49,7,Wunderground v.1.15,2013-10-07 13:15:00,
2013-10-07 09:20:00,58.2,55.9,29.86,SW,215,13.0,13.0,92,0.14,,,0.50,11,Wunderground v.1.15,2013-10-07 13:20:00,
2013-10-07 09:25:00,58.1,55.8,29.88,West,261,11.0,13.0,92,0.18,,,0.52,12,Wunderground v.1.15,2013-10-07 13:25:00,
2013-10-07 09:30:00,57.8,55.5,29.88,WSW,250,9.0,9.0,92,0.27,,,0.54,16,Wunderground v.1.15,2013-10-07 13:30:00,
2013-10-07 09:35:00,57.7,56.0,29.88,SSW,195,8.0,9.0,94,0.17,,,0.55,18,Wunderground v.1.15,2013-10-07 13:35:00,
2013-10-07 09:40:00,57.6,55.6,29.88,North,360,10.0,16.0,93,0.12,,,0.56,32,Wunderground v.1.15,2013-10-07 13:40:00,
2013-10-07 09:45:00,57.7,55.7,29.88,WNW,291,10.0,16.0,93,0.06,,,0.56,40,Wunderground v.1.15,2013-10-07 13:45:00,
2013-10-07 09:50:00,57.7,55.7,29.87,WSW,247,8.0,8.0,93,0.04,,,0.56,35,Wunderground v.1.15,2013-10-07 13:50:00,
2013-10-07 09:55:00,57.7,55.7,29.88,WSW,244,7.0,8.0,93,0.04,,,0.57,25,Wunderground v.1.15,2013-10-07 13:55:00,
2013-10-07 10:00:00,57.7,56.0,29.89,WSW,244,7.0,7.0,94,0.04,,,0.57,26,Wunderground v.1.15,2013-10-07 14:00:00,
2013-10-07 10:05:00,57.7,55.7,29.90,North,360,8.0,15.0,93,0.06,,,0.58,25,Wunderground v.1.15,2013-10-07 14:05:00,
2013-10-07 10:10:00,57.7,55.7,29.90,North,360,11.0,13.0,93,0.09,,,0.59,23,Wunderground v.1.15,2013-10-07 14:10:00,
2013-10-07 10:15:00,57.7,55.7,29.89,North,360,10.0,13.0,93,0.14,,,0.60,23,Wunderground v.1.15,2013-10-07 14:15:00,
2013-10-07 10:20:00,57.7,55.4,29.88,North,360,10.0,10.0,92,0.08,,,0.60,23,Wunderground v.1.15,2013-10-07 14:20:00,
2013-10-07 10:25:00,57.9,55.3,29.87,WSW,254,14.0,14.0,91,0.08,,,0.61,26,Wunderground v.1.15,2013-10-07 14:25:00,
2013-10-07 10:30:00,57.9,55.3,29.87,WNW,283,13.0,13.0,91,0.06,,,0.61,28,Wunderground v.1.15,2013-10-07 14:30:00,
2013-10-07 10:35:00,58.0,55.4,29.86,North,360,11.0,13.0,91,0.04,,,0.61,32,Wunderground v.1.15,2013-10-07 14:35:00,
2013-10-07 10:40:00,58.0,55.4,29.87,SW,221,10.0,10.0,91,0.04,,,0.62,21,Wunderground v.1.15,2013-10-07 14:40:00,
2013-10-07 10:45:00,58.0,55.1,29.87,SW,228,9.0,10.0,90,0.04,,,0.62,32,Wunderground v.1.15,2013-10-07 14:45:00,
2013-10-07 10:50:00,58.1,55.2,29.88,SW,227,10.0,10.0,90,0.04,,,0.62,33,Wunderground v.1.15,2013-10-07 14:50:00,
2013-10-07 10:55:00,58.3,55.4,29.87,SW,219,9.0,11.0,90,0.00,,,0.62,42,Wunderground v.1.15,2013-10-07 14:55:00,
2013-10-07 11:00:00,58.5,55.0,29.88,SW,230,9.0,9.0,88,0.00,,,0.62,26,Wunderground v.1.15,2013-10-07 15:00:00,
2013-10-07 11:05:00,58.5,55.6,29.88,West,274,8.0,16.0,90,0.00,,,0.62,33,Wunderground v.1.15,2013-10-07 15:05:00,
2013-10-07 11:10:00,58.5,55.3,29.89,SE,126,5.0,5.0,89,0.00,,,0.62,32,Wunderground v.1.15,2013-10-07 15:10:00,
2013-10-07 11:15:00,58.7,55.2,29.89,SSW,207,4.0,7.0,88,0.00,,,0.62,42,Wunderground v.1.15,2013-10-07 15:15:00,
2013-10-07 11:20:00,58.8,55.3,29.89,SSW,200,6.0,7.0,88,0.00,,,0.62,40,Wunderground v.1.15,2013-10-07 15:20:00,
2013-10-07 11:25:00,58.8,55.9,29.89,SE,146,8.0,8.0,90,0.00,,,0.62,54,Wunderground v.1.15,2013-10-07 15:25:00,
2013-10-07 11:30:00,58.8,56.2,29.88,South,180,7.0,9.0,91,0.00,,,0.62,60,Wunderground v.1.15,2013-10-07 15:30:00,
2013-10-07 11:35:00,58.7,55.5,29.89,SSW,207,6.0,9.0,89,0.00,,,0.62,63,Wunderground v.1.15,2013-10-07 15:35:00,
2013-10-07 11:40:00,58.8,55.9,29.88,South,180,6.0,6.0,90,0.00,,,0.62,63,Wunderground v.1.15,2013-10-07 15:40:00,
2013-10-07 11:45:00,58.9,56.0,29.89,North,360,5.0,6.0,90,0.00,,,0.62,76,Wunderground v.1.15,2013-10-07 15:45:00,
2013-10-07 11:50:00,59.0,56.4,29.89,South,180,4.0,6.0,91,0.00,,,0.62,79,Wunderground v.1.15,2013-10-07 15:50:00,
2013-10-07 11:55:00,59.1,55.9,29.88,South,177,6.0,11.0,89,0.00,,,0.62,116,Wunderground v.1.15,2013-10-07 15:55:00,
2013-10-07 12:00:00,59.4,56.2,29.89,SSW,212,8.0,8.0,89,0.00,,,0.62,156,Wunderground v.1.15,2013-10-07 16:00:00,
2013-10-07 12:05:00,59.7,55.5,29.89,South,178,8.0,14.0,86,0.00,,,0.62,162,Wunderground v.1.15,2013-10-07 16:05:00,
2013-10-07 12:10:00,60.1,55.9,29.88,North,360,9.0,10.0,86,0.00,,,0.62,146,Wunderground v.1.15,2013-10-07 16:10:00,
2013-10-07 12:15:00,60.3,56.1,29.89,South,175,9.0,10.0,86,0.00,,,0.62,171,Wunderground v.1.15,2013-10-07 16:15:00,
2013-10-07 12:20:00,60.6,55.4,29.90,North,360,7.0,7.0,83,0.00,,,0.62,237,Wunderground v.1.15,2013-10-07 16:20:00,
2013-10-07 12:25:00,61.1,56.9,29.90,North,360,7.0,8.0,86,0.00,,,0.62,265,Wunderground v.1.15,2013-10-07 16:25:00,
2013-10-07 12:30:00,61.4,56.5,29.90,SSW,197,6.0,7.0,84,0.00,,,0.62,262,Wunderground v.1.15,2013-10-07 16:30:00,
2013-10-07 12:35:00,61.9,56.3,29.89,East,92,6.0,7.0,82,0.00,,,0.62,438,Wunderground v.1.15,2013-10-07 16:35:00,
2013-10-07 12:40:00,62.4,56.1,29.89,SSW,207,7.0,20.0,80,0.00,,,0.62,408,Wunderground v.1.15,2013-10-07 16:40:00,
2013-10-07 12:45:00,62.9,55.9,29.90,WSW,243,7.0,20.0,78,0.00,,,0.62,359,Wunderground v.1.15,2013-10-07 16:45:00,
2013-10-07 12:50:00,63.3,56.7,29.90,West,263,8.0,10.0,79,0.00,,,0.62,311,Wunderground v.1.15,2013-10-07 16:50:00,
2013-10-07 12:55:00,63.5,55.4,29.91,WSW,253,10.0,11.0,75,0.00,,,0.62,241,Wunderground v.1.15,2013-10-07 16:55:00,
2013-10-07 13:00:00,63.6,55.9,29.91,SW,230,7.0,9.0,76,0.00,,,0.62,209,Wunderground v.1.15,2013-10-07 17:00:00,
2013-10-07 13:05:00,63.5,55.4,29.91,North,360,5.0,9.0,75,0.00,,,0.62,125,Wunderground v.1.15,2013-10-07 17:05:00,
2013-10-07 13:10:00,63.4,55.3,29.92,West,270,6.0,10.0,75,0.00,,,0.62,204,Wunderground v.1.15,2013-10-07 17:10:00,
2013-10-07 13:15:00,63.3,56.0,29.91,North,360,6.0,10.0,77,0.00,,,0.62,269,Wunderground v.1.15,2013-10-07 17:15:00,
2013-10-07 13:20:00,63.5,56.5,29.91,SSW,209,6.0,7.0,78,0.00,,,0.62,169,Wunderground v.1.15,2013-10-07 17:20:00,
2013-10-07 13:25:00,63.4,55.0,29.92,SSW,198,8.0,8.0,74,0.00,,,0.62,88,Wunderground v.1.15,2013-10-07 17:25:00,
2013-10-07 13:30:00,62.4,54.0,29.93,West,273,13.0,13.0,74,0.00,,,0.62,79,Wunderground v.1.15,2013-10-07 17:30:00,
2013-10-07 13:55:00,59.7,52.8,29.94,WSW,247,6.0,8.0,78,0.00,,,0.62,262,Wunderground v.1.15,2013-10-07 17:55:00,
2013-10-07 14:00:00,59.8,52.9,29.95,WSW,239,7.0,9.0,78,0.00,,,0.62,299,Wunderground v.1.15,2013-10-07 18:00:00,
2013-10-07 14:05:00,60.1,53.6,29.95,WSW,244,6.0,9.0,79,0.00,,,0.62,278,Wunderground v.1.15,2013-10-07 18:05:00,
2013-10-07 14:10:00,60.2,53.0,29.96,WSW,253,7.0,7.0,77,0.00,,,0.62,461,Wunderground v.1.15,2013-10-07 18:10:00,
2013-10-07 14:15:00,60.2,52.6,29.95,SSW,202,8.0,15.0,76,0.00,,,0.62,318,Wunderground v.1.15,2013-10-07 18:15:00,
2013-10-07 14:20:00,60.2,51.9,29.96,West,267,8.0,12.0,74,0.00,,,0.62,218,Wunderground v.1.15,2013-10-07 18:20:00,
2013-10-07 14:25:00,60.2,52.2,29.95,North,360,8.0,12.0,75,0.00,,,0.62,232,Wunderground v.1.15,2013-10-07 18:25:00,
2013-10-07 14:30:00,60.4,51.7,29.95,WSW,247,9.0,9.0,73,0.00,,,0.62,181,Wunderground v.1.15,2013-10-07 18:30:00,
2013-10-07 14:40:00,61.7,52.6,29.95,North,360,9.0,10.0,72,0.00,,,0.62,225,Wunderground v.1.15,2013-10-07 18:40:00,
2013-10-07 14:45:00,61.8,51.5,29.95,SW,219,8.0,10.0,69,0.00,,,0.62,290,Wunderground v.1.15,2013-10-07 18:45:00,
2013-10-07 14:50:00,62.0,52.9,29.95,North,360,8.0,17.0,72,0.00,,,0.62,350,Wunderground v.1.15,2013-10-07 18:50:00,
2013-10-07 14:55:00,62.3,52.0,29.96,SSW,206,8.0,17.0,69,0.00,,,0.62,149,Wunderground v.1.15,2013-10-07 18:55:00,
2013-10-07 15:00:00,62.2,50.7,29.96,West,267,7.0,10.0,66,0.00,,,0.62,155,Wunderground v.1.15,2013-10-07 19:00:00,
2013-10-07 15:05:00,62.1,51.8,29.97,West,275,7.0,10.0,69,0.00,,,0.62,239,Wunderground v.1.15,2013-10-07 19:05:00,
2013-10-07 15:10:00,62.0,50.9,29.97,WSW,240,7.0,7.0,67,0.00,,,0.62,142,Wunderground v.1.15,2013-10-07 19:10:00,
2013-10-07 15:15:00,62.2,51.5,29.98,WSW,256,3.0,7.0,68,0.00,,,0.62,239,Wunderground v.1.15,2013-10-07 19:15:00,
2013-10-07 15:20:00,62.2,50.3,29.98,SW,225,6.0,13.0,65,0.00,,,0.62,223,Wunderground v.1.15,2013-10-07 19:20:00,
2013-10-07 15:25:00,62.0,51.3,29.98,SW,218,8.0,13.0,68,0.00,,,0.62,174,Wunderground v.1.15,2013-10-07 19:25:00,
2013-10-07 15:30:00,61.9,50.4,29.98,SSW,194,8.0,8.0,66,0.00,,,0.62,213,Wunderground v.1.15,2013-10-07 19:30:00,
2013-10-07 15:35:00,61.9,51.2,29.99,SSW,197,7.0,8.0,68,0.00,,,0.62,176,Wunderground v.1.15,2013-10-07 19:35:00,
2013-10-07 15:40:00,61.9,49.6,29.99,SSW,195,6.0,7.0,64,0.00,,,0.62,311,Wunderground v.1.15,2013-10-07 19:40:00,
2013-10-07 15:45:00,61.9,50.4,29.99,SW,216,5.0,7.0,66,0.00,,,0.62,132,Wunderground v.1.15,2013-10-07 19:45:00,
2013-10-07 15:50:00,62.0,49.7,29.99,SW,232,5.0,5.0,64,0.00,,,0.62,160,Wunderground v.1.15,2013-10-07 19:50:00,
2013-10-07 15:55:00,61.9,50.0,30.00,North,360,5.0,8.0,65,0.00,,,0.62,83,Wunderground v.1.15,2013-10-07 19:55:00,
2013-10-07 16:00:00,61.7,50.2,30.00,SW,233,6.0,6.0,66,0.00,,,0.62,104,Wunderground v.1.15,2013-10-07 20:00:00,
2013-10-07 16:05:00,61.5,49.6,30.00,North,360,7.0,7.0,65,0.00,,,0.62,95,Wunderground v.1.15,2013-10-07 20:05:00,
2013-10-07 16:10:00,61.5,51.2,30.00,SSE,166,5.0,12.0,69,0.00,,,0.62,160,Wunderground v.1.15,2013-10-07 20:10:00,
2013-10-07 16:15:00,61.6,50.5,30.01,SSW,212,5.0,12.0,67,0.00,,,0.62,218,Wunderground v.1.15,2013-10-07 20:15:00,
2013-10-07 16:20:00,61.8,50.3,30.01,West,275,7.0,8.0,66,0.00,,,0.62,230,Wunderground v.1.15,2013-10-07 20:20:00,
2013-10-07 16:25:00,61.9,50.0,30.00,North,360,5.0,8.0,65,0.00,,,0.62,388,Wunderground v.1.15,2013-10-07 20:25:00,
2013-10-07 16:35:00,62.6,50.2,30.01,SW,215,4.0,5.0,64,0.00,,,0.62,186,Wunderground v.1.15,2013-10-07 20:35:00,
2013-10-07 16:40:00,62.7,51.2,30.01,WSW,257,4.0,7.0,66,0.00,,,0.62,121,Wunderground v.1.15,2013-10-07 20:40:00,
2013-10-07 16:45:00,62.6,49.0,30.01,NW,305,5.0,7.0,61,0.00,,,0.62,93,Wunderground v.1.15,2013-10-07 20:45:00,
2013-10-07 16:50:00,62.3,50.4,30.01,SSE,166,4.0,4.0,65,0.00,,,0.62,79,Wunderground v.1.15,2013-10-07 20:50:00,
2013-10-07 16:55:00,62.2,50.3,30.01,West,265,2.0,4.0,65,0.00,,,0.62,114,Wunderground v.1.15,2013-10-07 20:55:00,
2013-10-07 17:00:00,62.0,50.1,30.01,North,360,1.0,1.0,65,0.00,,,0.62,83,Wunderground v.1.15,2013-10-07 21:00:00,
2013-10-07 17:10:00,61.6,48.0,30.02,North,360,5.0,5.0,61,0.00,,,0.62,76,Wunderground v.1.15,2013-10-07 21:10:00,
2013-10-07 17:15:00,61.5,47.9,30.02,North,360,4.0,5.0,61,0.00,,,0.62,84,Wunderground v.1.15,2013-10-07 21:15:00,
2013-10-07 17:25:00,61.2,48.5,30.02,South,182,5.0,15.0,63,0.00,,,0.62,74,Wunderground v.1.15,2013-10-07 21:25:00,
2013-10-07 17:30:00,61.0,48.7,30.03,ESE,105,4.0,4.0,64,0.00,,,0.62,76,Wunderground v.1.15,2013-10-07 21:30:00,
2013-10-07 17:35:00,60.9,49.5,30.03,South,190,3.0,6.0,66,0.00,,,0.62,84,Wunderground v.1.15,2013-10-07 21:35:00,
2013-10-07 17:40:00,60.8,48.5,30.03,WSW,242,4.0,4.0,64,0.00,,,0.62,74,Wunderground v.1.15,2013-10-07 21:40:00,
2013-10-07 17:45:00,60.8,48.5,30.03,NW,311,3.0,4.0,64,0.00,,,0.62,70,Wunderground v.1.15,2013-10-07 21:45:00,
2013-10-07 17:50:00,60.8,49.0,30.03,SSE,167,2.0,2.0,65,0.00,,,0.62,83,Wunderground v.1.15,2013-10-07 21:50:00,
2013-10-07 17:55:00,60.6,48.4,30.04,NW,306,2.0,2.0,64,0.00,,,0.62,62,Wunderground v.1.15,2013-10-07 21:55:00,
2013-10-07 18:00:00,60.4,49.0,30.04,South,190,1.0,1.0,66,0.00,,,0.62,51,Wunderground v.1.15,2013-10-07 22:00:00,
2013-10-07 18:05:00,60.2,48.4,30.04,SW,227,2.0,2.0,65,0.00,,,0.62,54,Wunderground v.1.15,2013-10-07 22:05:00,
2013-10-07 18:10:00,60.0,49.0,30.04,SW,228,2.0,3.0,67,0.00,,,0.62,47,Wunderground v.1.15,2013-10-07 22:10:00,
2013-10-07 18:15:00,59.8,48.0,30.04,SSW,209,2.0,3.0,65,0.00,,,0.62,25,Wunderground v.1.15,2013-10-07 22:15:00,
2013-10-07 18:20:00,59.7,47.9,30.05,SSW,205,5.0,5.0,65,0.00,,,0.62,30,Wunderground v.1.15,2013-10-07 22:20:00,
2013-10-07 18:25:00,59.7,47.1,30.05,SSW,200,4.0,5.0,63,0.00,,,0.62,25,Wunderground v.1.15,2013-10-07 22:25:00,
2013-10-07 18:30:00,59.7,48.7,30.05,SSE,161,3.0,3.0,67,0.00,,,0.62,26,Wunderground v.1.15,2013-10-07 22:30:00,
2013-10-07 18:35:00,59.5,48.9,30.05,NNW,331,2.0,3.0,68,0.00,,,0.62,23,Wunderground v.1.15,2013-10-07 22:35:00,
2013-10-07 18:40:00,58.9,49.1,30.06,WNW,291,1.0,1.0,70,0.00,,,0.62,11,Wunderground v.1.15,2013-10-07 22:40:00,
2013-10-07 18:50:00,58.0,48.6,30.06,ENE,67,1.0,2.0,71,0.00,,,0.62,12,Wunderground v.1.15,2013-10-07 22:50:00,
2013-10-07 18:55:00,57.9,49.3,30.07,ENE,67,1.0,2.0,73,0.00,,,0.62,11,Wunderground v.1.15,2013-10-07 22:55:00,
2013-10-07 19:00:00,57.6,49.4,30.07,SSW,193,1.0,1.0,74,0.00,,,0.62,5,Wunderground v.1.15,2013-10-07 23:00:00,
2013-10-07 19:05:00,57.3,49.8,30.07,WSW,255,2.0,4.0,76,0.00,,,0.62,0,Wunderground v.1.15,2013-10-07 23:05:00,
2013-10-07 19:10:00,56.8,48.6,30.08,West,266,2.0,2.0,74,0.00,,,0.62,0,Wunderground v.1.15,2013-10-07 23:10:00,
2013-10-07 19:15:00,56.4,48.9,30.08,SE,140,1.0,2.0,76,0.00,,,0.62,0,Wunderground v.1.15,2013-10-07 23:15:00,
2013-10-07 19:20:00,56.1,49.0,30.08,SE,136,0.0,0.0,77,0.00,,,0.62,0,Wunderground v.1.15,2013-10-07 23:20:00,
2013-10-07 19:25:00,55.8,49.4,30.08,SW,230,1.0,1.0,79,0.00,,,0.62,0,Wunderground v.1.15,2013-10-07 23:25:00,
2013-10-07 19:30:00,55.4,49.3,30.08,WSW,256,1.0,1.0,80,0.00,,,0.62,0,Wunderground v.1.15,2013-10-07 23:30:00,
2013-10-07 19:35:00,55.1,49.4,30.09,WSW,244,1.0,4.0,81,0.00,,,0.62,0,Wunderground v.1.15,2013-10-07 23:35:00,
2013-10-07 19:40:00,54.7,49.3,30.09,SW,220,1.0,1.0,82,0.00,,,0.62,0,Wunderground v.1.15,2013-10-07 23:40:00,
2013-10-07 19:45:00,54.3,49.2,30.10,SW,220,1.0,1.0,83,0.00,,,0.62,0,Wunderground v.1.15,2013-10-07 23:45:00,
2013-10-07 19:50:00,53.9,48.9,30.10,NW,305,1.0,5.0,83,0.00,,,0.62,0,Wunderground v.1.15,2013-10-07 23:50:00,
2013-10-07 19:55:00,53.5,48.8,30.10,WSW,249,3.0,5.0,84,0.00,,,0.62,0,Wunderground v.1.15,2013-10-07 23:55:00,
2013-10-07 20:00:00,53.2,48.8,30.11,NW,311,3.0,3.0,85,0.00,,,0.62,0,Wunderground v.1.15,2013-10-08 00:00:00,
2013-10-07 20:05:00,53.0,48.6,30.11,NW,313,1.0,3.0,85,0.00,,,0.62,0,Wunderground v.1.15,2013-10-08 00:05:00,
2013-10-07 20:10:00,52.7,48.6,30.11,NW,311,1.0,4.0,86,0.00,,,0.62,0,Wunderground v.1.15,2013-10-08 00:10:00,
2013-10-07 20:15:00,52.5,48.4,30.11,NW,313,3.0,4.0,86,0.00,,,0.62,0,Wunderground v.1.15,2013-10-08 00:15:00,
2013-10-07 20:20:00,52.2,48.4,30.12,WNW,283,3.0,3.0,87,0.00,,,0.62,0,Wunderground v.1.15,2013-10-08 00:20:00,
2013-10-07 20:25:00,51.9,48.5,30.12,WNW,282,2.0,3.0,88,0.00,,,0.62,0,Wunderground v.1.15,2013-10-08 00:25:00,
2013-10-07 20:30:00,51.7,48.3,30.13,West,276,2.0,2.0,88,0.00,,,0.62,0,Wunderground v.1.15,2013-10-08 00:30:00,
2013-10-07 20:35:00,51.4,48.0,30.13,NW,305,3.0,3.0,88,0.00,,,0.62,0,Wunderground v.1.15,2013-10-08 00:35:00,
2013-10-07 20:40:00,51.2,47.8,30.14,WNW,293,2.0,2.0,88,0.00,,,0.62,0,Wunderground v.1.15,2013-10-08 00:40:00,
2013-10-07 20:45:00,51.1,47.7,30.14,NW,307,3.0,4.0,88,0.00,,,0.62,0,Wunderground v.1.15,2013-10-08 00:45:00,
2013-10-07 20:50:00,50.9,47.8,30.14,WNW,284,3.0,3.0,89,0.00,,,0.62,0,Wunderground v.1.15,2013-10-08 00:50:00,
2013-10-07 20:55:00,50.7,47.6,30.14,WNW,286,2.0,3.0,89,0.00,,,0.62,0,Wunderground v.1.15,2013-10-08 00:55:00,
2013-10-07 21:00:00,50.5,47.7,30.15,West,268,3.0,3.0,90,0.00,,,0.62,0,Wunderground v.1.15,2013-10-08 01:00:00,
2013-10-07 21:05:00,50.4,47.6,30.15,WNW,291,3.0,3.0,90,0.00,,,0.62,0,Wunderground v.1.15,2013-10-08 01:05:00,
2013-10-07 21:10:00,50.2,47.4,30.15,WNW,289,1.0,1.0,90,0.00,,,0.62,0,Wunderground v.1.15,2013-10-08 01:10:00,
2013-10-07 21:15:00,50.0,47.5,30.15,WSW,249,0.0,1.0,91,0.00,,,0.62,0,Wunderground v.1.15,2013-10-08 01:15:00,
2013-10-07 21:20:00,49.8,47.3,30.15,WNW,294,1.0,4.0,91,0.00,,,0.62,0,Wunderground v.1.15,2013-10-08 01:20:00,
2013-10-07 21:25:00,49.6,47.1,30.15,WNW,296,1.0,4.0,91,0.00,,,0.62,0,Wunderground v.1.15,2013-10-08 01:25:00,
2013-10-07 21:30:00,49.4,47.2,30.16,WNW,300,0.0,0.0,92,0.00,,,0.62,0,Wunderground v.1.15,2013-10-08 01:30:00,
2013-10-07 21:35:00,49.2,47.0,30.16,WNW,298,0.0,0.0,92,0.00,,,0.62,0,Wunderground v.1.15,2013-10-08 01:35:00,
2013-10-07 21:40:00,49.1,46.9,30.16,WNW,300,1.0,4.0,92,0.00,,,0.62,0,Wunderground v.1.15,2013-10-08 01:40:00,
2013-10-07 21:45:00,48.9,47.0,30.16,WNW,288,3.0,4.0,93,0.00,,,0.62,0,Wunderground v.1.15,2013-10-08 01:45:00,
2013-10-07 21:50:00,48.8,46.9,30.16,WNW,288,4.0,4.0,93,0.00,,,0.62,0,Wunderground v.1.15,2013-10-08 01:50:00,
2013-10-07 21:55:00,48.7,46.8,30.16,WNW,292,3.0,4.0,93,0.00,,,0.62,0,Wunderground v.1.15,2013-10-08 01:55:00,
2013-10-07 22:00:00,48.5,46.6,30.16,SSW,207,1.0,2.0,93,0.00,,,0.62,0,Wunderground v.1.15,2013-10-08 02:00:00,
2013-10-07 22:10:00,48.3,46.4,30.17,South,175,2.0,4.0,93,0.00,,,0.62,0,Wunderground v.1.15,2013-10-08 02:10:00,
2013-10-07 22:15:00,48.3,46.4,30.17,SW,234,3.0,4.0,93,0.00,,,0.62,0,Wunderground v.1.15,2013-10-08 02:15:00,
2013-10-07 22:20:00,48.3,46.4,30.17,SE,135,2.0,4.0,93,0.00,,,0.62,0,Wunderground v.1.15,2013-10-08 02:20:00,
2013-10-07 22:25:00,48.3,46.7,30.17,West,259,2.0,4.0,94,0.00,,,0.62,0,Wunderground v.1.15,2013-10-08 02:25:00,
2013-10-07 22:30:00,48.4,46.8,30.17,South,174,2.0,2.0,94,0.00,,,0.62,0,Wunderground v.1.15,2013-10-08 02:30:00,
2013-10-07 22:35:00,48.5,46.9,30.17,NW,304,1.0,4.0,94,0.00,,,0.62,0,Wunderground v.1.15,2013-10-08 02:35:00,
2013-10-07 22:40:00,48.9,46.7,30.17,SSE,155,2.0,2.0,92,0.00,,,0.62,0,Wunderground v.1.15,2013-10-08 02:40:00,
2013-10-07 22:45:00,49.1,46.9,30.17,SE,141,3.0,6.0,92,0.00,,,0.62,0,Wunderground v.1.15,2013-10-08 02:45:00,
2013-10-07 22:50:00,49.1,46.6,30.17,SSW,205,2.0,2.0,91,0.00,,,0.62,0,Wunderground v.1.15,2013-10-08 02:50:00,
2013-10-07 22:55:00,49.4,46.3,30.17,South,173,3.0,5.0,89,0.00,,,0.62,0,Wunderground v.1.15,2013-10-08 02:55:00,
2013-10-07 23:00:00,50.0,46.9,30.17,South,191,2.0,2.0,89,0.00,,,0.62,0,Wunderground v.1.15,2013-10-08 03:00:00,
2013-10-07 23:10:00,51.0,47.0,30.18,SSW,205,3.0,3.0,86,0.00,,,0.62,0,Wunderground v.1.15,2013-10-08 03:10:00,
2013-10-07 23:15:00,51.4,47.0,30.18,WSW,245,3.0,3.0,85,0.00,,,0.62,0,Wunderground v.1.15,2013-10-08 03:15:00,
2013-10-07 23:20:00,51.6,47.2,30.18,NE,36,2.0,2.0,85,0.00,,,0.62,0,Wunderground v.1.15,2013-10-08 03:20:00,
2013-10-07 23:25:00,51.5,46.8,30.18,WSW,253,1.0,3.0,84,0.00,,,0.62,0,Wunderground v.1.15,2013-10-08 03:25:00,
2013-10-07 23:30:00,51.5,46.5,30.18,SW,227,3.0,5.0,83,0.00,,,0.62,0,Wunderground v.1.15,2013-10-08 03:30:00,
2013-10-07 23:35:00,51.8,46.8,30.18,WSW,241,4.0,5.0,83,0.00,,,0.62,0,Wunderground v.1.15,2013-10-08 03:35:00,
2013-10-07 23:40:00,51.9,46.9,30.19,WSW,256,3.0,3.0,83,0.00,,,0.62,0,Wunderground v.1.15,2013-10-08 03:40:00,
2013-10-07 23:45:00,51.9,46.6,30.18,SSE,157,4.0,5.0,82,0.00,,,0.62,0,Wunderground v.1.15,2013-10-08 03:45:00,
2013-10-07 23:50:00,51.9,46.3,30.19,SSW,210,5.0,5.0,81,0.00,,,0.62,0,Wunderground v.1.15,2013-10-08 03:50:00,
2013-10-07 23:55:00,52.3,46.6,30.19,SSW,209,4.0,5.0,81,0.00,,,0.62,0,Wunderground v.1.15,2013-10-08 03:55:00,